• In Hungary
  • List of Countries
  • For 7 days
  • Water Temperature
  • Satellite Maps
  • Weather Map
  • News
  • Weather Widgets
  • user-avatar
    Login

    Hourly Weather Murfreesboro

    Today, 19 June, Tuesday

    Time Temperature Precipitation Wind Pressure Humidity
    00:00 +25°C° 0.8 mm 1 mps 747 mmHg 93%
    01:00 +24°C° 0.9 mm 1 mps 747 mmHg 93%
    02:00 +24°C° 0.9 mm 1 mps 747 mmHg 93%
    03:00 +24°C° 0.9 mm 1 mps 747 mmHg 93%
    04:00 +24°C° 0.4 mm 1 mps 747 mmHg 93%
    05:00 +25°C° 0.4 mm 1 mps 747 mmHg 92%
    06:00 +25°C° 0.4 mm 1 mps 747 mmHg 92%
    07:00 +27°C° 0.3 mm 2 mps 747 mmHg 85%
    08:00 +28°C° 0.3 mm 3 mps 747 mmHg 78%
    09:00 +30°C° 0.3 mm 3 mps 747 mmHg 71%
    10:00 +31°C° 0.1 mm 3 mps 747 mmHg 66%
    11:00 +33°C° 0.1 mm 3 mps 747 mmHg 61%
    12:00 +34°C° 0.1 mm 3 mps 746 mmHg 55%
    13:00 +34°C° 0 mm 3 mps 746 mmHg 56%
    14:00 +34°C° 0 mm 3 mps 745 mmHg 57%
    15:00 +34°C° 0 mm 3 mps 745 mmHg 57%
    16:00 +32°C° 0.3 mm 2 mps 745 mmHg 65%
    17:00 +31°C° 0.3 mm 2 mps 745 mmHg 72%
    18:00 +29°C° 0.3 mm 2 mps 745 mmHg 79%
    19:00 +28°C° 0 mm 2 mps 745 mmHg 81%
    20:00 +27°C° 0 mm 2 mps 745 mmHg 83%
    21:00 +25°C° 0 mm 1 mps 745 mmHg 85%
    22:00 +25°C° 0 mm 1 mps 745 mmHg 86%
    23:00 +25°C° 0 mm 1 mps 745 mmHg 86%

    Tomorrow, 20 June, Wednesday

    Time Temperature Precipitation Wind Pressure Humidity
    00:00 +25°C° 0 mm 1 mps 745 mmHg 86%
    01:00 +24°C° 0 mm 1 mps 745 mmHg 87%
    02:00 +24°C° 0 mm 1 mps 744 mmHg 87%
    03:00 +23°C° 0 mm 1 mps 744 mmHg 88%
    04:00 +24°C° 0 mm 1 mps 744 mmHg 87%
    05:00 +24°C° 0 mm 1 mps 745 mmHg 86%
    06:00 +25°C° 0 mm 1 mps 745 mmHg 85%
    07:00 +26°C° 0 mm 1 mps 745 mmHg 78%
    08:00 +28°C° 0 mm 2 mps 745 mmHg 72%
    09:00 +29°C° 0 mm 2 mps 745 mmHg 65%
    10:00 +30°C° 0 mm 2 mps 744 mmHg 63%
    11:00 +31°C° 0 mm 3 mps 744 mmHg 61%
    12:00 +33°C° 0 mm 3 mps 744 mmHg 59%
    13:00 +31°C° 0.9 mm 3 mps 744 mmHg 67%
    14:00 +30°C° 0.9 mm 4 mps 743 mmHg 75%
    15:00 +29°C° 0.9 mm 4 mps 743 mmHg 82%
    16:00 +28°C° 0.4 mm 3 mps 743 mmHg 84%
    17:00 +28°C° 0.4 mm 3 mps 743 mmHg 86%
    18:00 +27°C° 0.4 mm 3 mps 743 mmHg 87%
    19:00 +26°C° 0.1 mm 2 mps 743 mmHg 88%
    20:00 +26°C° 0.1 mm 2 mps 743 mmHg 89%
    21:00 +25°C° 0.1 mm 2 mps 744 mmHg 90%
    22:00 +25°C° 0 mm 2 mps 743 mmHg 91%
    23:00 +24°C° 0 mm 2 mps 743 mmHg 91%

    Day after tomorrow, 21 June, Thursday

    Time Temperature Precipitation Wind Pressure Humidity
    00:00 +24°C° 0 mm 2 mps 743 mmHg 92%
    01:00 +24°C° 0.4 mm 1 mps 743 mmHg 92%
    02:00 +23°C° 0.4 mm 1 mps 743 mmHg 93%
    03:00 +23°C° 0.4 mm 1 mps 742 mmHg 94%
    04:00 +23°C° 1.4 mm 1 mps 742 mmHg 95%
    05:00 +23°C° 1.4 mm 1 mps 743 mmHg 96%
    06:00 +23°C° 1.4 mm 1 mps 743 mmHg 97%
    07:00 +24°C° 0.3 mm 2 mps 743 mmHg 95%
    08:00 +24°C° 0.3 mm 2 mps 743 mmHg 93%
    09:00 +25°C° 0.3 mm 2 mps 743 mmHg 91%
    10:00 +26°C° 0.8 mm 2 mps 743 mmHg 87%
    11:00 +28°C° 0.8 mm 3 mps 743 mmHg 84%
    12:00 +29°C° 0.8 mm 3 mps 742 mmHg 80%
    13:00 +29°C° 1.2 mm 3 mps 742 mmHg 81%
    14:00 +29°C° 1.2 mm 3 mps 741 mmHg 82%
    15:00 +30°C° 1.2 mm 3 mps 741 mmHg 82%
    16:00 +29°C° 0.7 mm 2 mps 741 mmHg 85%
    17:00 +28°C° 0.7 mm 2 mps 741 mmHg 87%
    18:00 +28°C° 0.7 mm 2 mps 741 mmHg 89%
    19:00 +27°C° 0.6 mm 2 mps 741 mmHg 91%
    20:00 +26°C° 0.6 mm 2 mps 741 mmHg 93%
    21:00 +25°C° 0.6 mm 2 mps 741 mmHg 95%
    22:00 +25°C° 0.3 mm 2 mps 741 mmHg 96%
    23:00 +25°C° 0.3 mm 2 mps 741 mmHg 96%

    22 June, Friday

    Time Temperature Precipitation Wind Pressure Humidity
    00:00 +25°C° 0.3 mm 2 mps 741 mmHg 97%
    01:00 +24°C° 0.5 mm 2 mps 741 mmHg 97%
    02:00 +24°C° 0.5 mm 2 mps 740 mmHg 97%
    03:00 +24°C° 0.5 mm 2 mps 740 mmHg 98%
    04:00 +24°C° 0.7 mm 2 mps 741 mmHg 97%
    05:00 +25°C° 0.7 mm 3 mps 741 mmHg 97%
    06:00 +25°C° 0.7 mm 3 mps 741 mmHg 96%
    07:00 +26°C° 0.3 mm 3 mps 741 mmHg 92%
    08:00 +27°C° 0.3 mm 4 mps 741 mmHg 88%
    09:00 +28°C° 0.3 mm 4 mps 741 mmHg 83%
    10:00 +29°C° 0.4 mm 4 mps 741 mmHg 78%
    11:00 +32°C° 0.4 mm 5 mps 741 mmHg 73%
    12:00 +33°C° 0.4 mm 5 mps 740 mmHg 68%
    13:00 +32°C° 1.6 mm 5 mps 740 mmHg 72%
    14:00 +32°C° 1.6 mm 5 mps 740 mmHg 76%
    15:00 +30°C° 1.6 mm 5 mps 739 mmHg 79%
    16:00 +29°C° 2 mm 4 mps 739 mmHg 82%
    17:00 +28°C° 2 mm 4 mps 739 mmHg 85%
    18:00 +27°C° 2 mm 4 mps 739 mmHg 88%
    19:00 +26°C° 0.6 mm 4 mps 739 mmHg 89%
    20:00 +26°C° 0.6 mm 3 mps 740 mmHg 91%
    21:00 +25°C° 0.6 mm 3 mps 740 mmHg 93%
    22:00 +24°C° 0.1 mm 3 mps 740 mmHg 94%
    23:00 +24°C° 0.1 mm 3 mps 740 mmHg 95%

    23 June, Saturday

    Time Temperature Precipitation Wind Pressure Humidity
    00:00 +24°C° 0.1 mm 3 mps 739 mmHg 96%
    01:00 +24°C° 0.1 mm 3 mps 739 mmHg 96%
    02:00 +24°C° 0.1 mm 3 mps 739 mmHg 96%
    03:00 +24°C° 0.1 mm 3 mps 740 mmHg 97%
    04:00 +24°C° 0 mm 3 mps 740 mmHg 96%
    05:00 +24°C° 0 mm 3 mps 740 mmHg 96%
    06:00 +24°C° 0 mm 3 mps 740 mmHg 96%
    07:00 +26°C° 0 mm 4 mps 741 mmHg 89%
    08:00 +27°C° 0 mm 4 mps 741 mmHg 83%
    09:00 +28°C° 0 mm 5 mps 741 mmHg 76%
    10:00 +29°C° 0 mm 4 mps 741 mmHg 71%
    11:00 +32°C° 0 mm 4 mps 742 mmHg 67%
    12:00 +33°C° 0 mm 4 mps 742 mmHg 62%
    13:00 +32°C° 0.8 mm 4 mps 742 mmHg 69%
    14:00 +30°C° 0.8 mm 3 mps 742 mmHg 77%
    15:00 +29°C° 0.8 mm 3 mps 742 mmHg 84%
    16:00 +28°C° 0.2 mm 3 mps 742 mmHg 86%
    17:00 +27°C° 0.2 mm 3 mps 742 mmHg 88%
    18:00 +27°C° 0.2 mm 2 mps 742 mmHg 90%
    19:00 +26°C° 0 mm 2 mps 742 mmHg 92%
    20:00 +26°C° 0 mm 2 mps 742 mmHg 93%
    21:00 +25°C° 0 mm 3 mps 743 mmHg 95%
    22:00 +25°C° 0 mm 2 mps 743 mmHg 95%
    23:00 +24°C° 0 mm 2 mps 742 mmHg 95%

    24 June, Sunday

    Time Temperature Precipitation Wind Pressure Humidity
    00:00 +24°C° 0 mm 1 mps 742 mmHg 95%
    01:00 +23°C° 0.1 mm 2 mps 742 mmHg 94%
    02:00 +23°C° 0.1 mm 2 mps 743 mmHg 94%
    03:00 +23°C° 0.1 mm 2 mps 743 mmHg 94%
    04:00 +24°C° 0.5 mm 2 mps 743 mmHg 94%
    05:00 +24°C° 0.5 mm 2 mps 743 mmHg 95%
    06:00 +25°C° 0.5 mm 3 mps 743 mmHg 95%
    07:00 +26°C° 2.4 mm 3 mps 743 mmHg 92%
    08:00 +27°C° 2.4 mm 3 mps 744 mmHg 90%
    09:00 +28°C° 2.4 mm 3 mps 744 mmHg 88%
    10:00 +29°C° 0.2 mm 4 mps 744 mmHg 81%
    11:00 +30°C° 0.2 mm 4 mps 744 mmHg 75%
    12:00 +33°C° 0.2 mm 5 mps 744 mmHg 69%
    13:00 +33°C° 0 mm 5 mps 743 mmHg 69%
    14:00 +33°C° 0 mm 5 mps 743 mmHg 68%
    15:00 +33°C° 0 mm 4 mps 743 mmHg 68%
    16:00 +33°C° 0.2 mm 4 mps 743 mmHg 72%
    17:00 +31°C° 0.2 mm 3 mps 743 mmHg 75%
    18:00 +30°C° 0.2 mm 3 mps 743 mmHg 79%
    19:00 +29°C° 1.8 mm 3 mps 743 mmHg 82%
    20:00 +28°C° 1.8 mm 3 mps 743 mmHg 86%
    21:00 +27°C° 1.8 mm 3 mps 744 mmHg 89%
    22:00 +26°C° 4.6 mm 2 mps 744 mmHg 90%
    23:00 +26°C° 4.6 mm 2 mps 744 mmHg 90%
    Show more